Wind_Speed
6 6 10 5 2 2 5 8 12 11 2 3 3 5 12 18 20 20 21 22 23 25 26 24 24 24 26 25 23 22 21 19 18 16 15 13 10 8 7 6 8 10 11 13
5 14 6 4 4 3 4 9 11 4 2 3 3 11 12 20 26 28 27 25 25 24 23 26 29 27 26 25 26 26 23 20 20 20 16 15 12 9 7 7 8 9 10 13
14 5 6 3 3 5 6 7 10 9 1 3 8 7 4 11 19 22 25 26 26 27 26 26 27 29 30 29 24 25 26 22 21 21 20 18 16 13 10 7 8 8 9 10
8 5 7 3 5 4 8 6 10 2 2 4 6 6 4 5 11 15 24 26 28 30 29 27 27 29 30 29 24 22 23 26 23 22 21 19 16 15 11 8 11 10 11 10
5 4 9 12 8 5 1 2 5 4 3 3 1 4 4 1 8 14 21 26 23 26 31 30 30 32 32 30 27 23 22 25 26 22 20 17 17 18 15 14 10 12 11 10
6 1 2 3 3 2 9 2 3 2 2 4 3 4 5 3 4 7 18 24 27 25 27 30 30 31 34 31 29 26 24 23 25 26 23 20 15 16 16 15 12 13 12 9
4 10 4 4 7 3 5 3 3 2 1 4 2 4 9 7 7 5 10 15 25 25 25 27 30 34 33 31 29 28 27 25 24 24 26 22 22 18 15 15 14 14 11 8
8 7 10 9 14 7 8 5 4 4 3 5 1 5 6 2 1 11 9 9 14 25 27 26 28 32 34 31 26 28 29 26 24 23 26 25 23 22 17 16 14 13 11 9
5 5 1 5 3 9 6 6 2 1 2 3 3 6 10 4 8 13 10 7 9 16 24 28 28 28 32 34 29 24 29 29 26 23 25 27 25 23 20 17 15 13 11 10
5 4 0 2 4 5 4 10 3 1 3 7 4 5 7 6 3 4 6 9 11 13 18 22 27 29 29 33 33 29 26 24 21 23 22 21 23 21 22 19 18 14 11 11
7 5 3 2 5 8 4 4 2 2 2 4 4 4 4 4 5 9 9 10 12 15 17 20 22 24 28 31 35 32 32 31 28 26 26 22 21 22 23 21 19 14 12 12
7 3 9 13 1 1 0 2 6 4 5 2 3 7 2 2 5 8 12 11 11 13 13 18 22 25 26 28 32 35 35 33 31 29 27 24 20 19 21 23 20 15 15 15
8 5 4 4 3 3 5 5 3 4 1 5 4 5 5 7 8 8 7 9 15 19 15 17 20 24 28 30 28 31 31 29 28 29 28 27 22 19 21 24 21 16 17 16
8 3 4 7 1 1 6 7 6 3 4 6 5 7 13 13 13 13 10 8 8 16 20 20 22 22 24 30 29 30 30 29 28 28 29 28 25 21 22 25 23 20 19 18
2 1 2 2 4 4 5 7 8 6 2 4 2 5 9 11 15 16 19 8 6 12 18 19 19 17 19 23 27 27 29 29 29 29 30 28 23 21 22 25 22 22 21 21
1 2 2 2 4 2 5 5 7 3 2 4 5 10 4 16 14 13 12 12 10 8 11 15 17 18 19 21 22 25 29 31 30 29 29 27 23 22 25 25 19 23 23 23
2 3 1 2 3 4 4 7 6 4 4 3 4 4 13 13 11 7 12 10 11 12 13 11 10 15 21 22 22 23 26 28 29 28 27 25 23 24 24 16 17 26 25 23
1 1 2 3 4 5 3 1 1 4 5 9 6 8 9 13 11 9 8 9 10 11 13 15 14 12 14 17 17 20 21 23 24 25 26 25 24 23 15 14 19 25 26 23
2 2 2 3 4 3 3 6 6 8 6 14 8 6 6 7 5 8 12 15 15 15 11 12 10 9 13 14 17 18 19 19 21 23 24 26 27 25 24 18 24 29 24 21
5 2 3 2 10 10 3 7 6 3 6 12 10 3 5 4 4 5 17 21 24 25 15 6 8 10 14 18 17 18 18 18 19 22 26 28 29 29 25 8 26 31 25 19
0 1 4 4 4 4 2 4 8 5 4 4 1 2 4 3 4 12 18 22 20 23 27 16 4 2 8 12 14 15 14 13 15 14 15 28 8 23 17 17 30 31 26 21
4 4 3 1 3 5 4 8 3 3 8 6 5 7 8 10 15 17 21 23 20 16 19 19 18 9 3 6 10 12 14 16 18 22 10 36 35 19 20 20 26 23 25 20
3 2 1 4 2 2 2 5 8 8 9 5 8 10 11 12 16 21 25 23 13 14 12 14 12 9 5 1 6 12 13 15 15 15 17 6 9 15 25 25 23 28 23 16
3 2 2 3 2 5 5 7 7 10 9 10 12 15 13 9 10 16 18 20 10 3 11 15 14 11 5 1 4 9 8 8 14 11 11 7 16 22 29 24 23 25 19 24
2 4 2 4 7 7 4 4 7 15 18 15 12 10 11 9 7 8 14 18 15 8 1 6 12 14 7 3 3 5 7 14 11 9 10 14 14 25 28 25 23 21 21 20
7 4 3 4 3 6 15 8 15 19 18 19 21 13 10 9 8 7 12 13 10 6 4 6 8 12 5 1 2 6 7 8 10 13 10 14 18 26 28 24 24 21 16 16
Wind_Direction
184 213 223 235 213 298 281 280 293 301 149 189 242 236 189 196 202 202 206 200 205 211 215 217 218 222 226 224 224 227 225 225 221 221 223 221 228 237 252 274 277 284 303 305
204 232 199 145 154 260 256 290 313 324 18 261 288 276 226 197 209 206 200 206 211 215 219 224 228 227 231 235 232 235 232 232 230 229 230 235 244 254 259 278 292 302 311 306
224 242 161 208 185 272 283 293 320 312 30 99 320 280 194 218 224 219 217 211 213 216 217 221 225 230 234 239 240 241 237 233 233 231 235 240 246 250 262 291 306 310 311 311
246 199 205 192 258 229 291 336 311 337 270 328 356 304 276 225 219 223 217 215 214 215 218 221 226 229 232 238 239 241 240 237 236 235 236 240 247 254 265 276 284 301 305 300
209 198 197 222 245 193 350 35 68 85 99 283 139 273 270 287 245 222 213 215 219 218 218 218 221 227 232 236 238 240 239 239 237 236 237 242 247 251 254 263 278 291 292 301
247 299 238 198 171 236 170 126 70 85 352 290 68 283 300 220 240 217 216 219 218 217 216 217 221 227 232 235 239 233 231 228 235 237 237 237 245 248 251 257 270 285 286 286
248 243 219 183 232 130 183 197 292 259 193 273 112 243 265 258 251 219 186 216 214 213 209 213 217 224 230 231 234 229 227 230 230 233 236 241 247 249 251 252 263 282 274 275
212 232 196 184 216 217 197 228 232 267 266 309 313 248 312 250 269 227 236 240 208 209 210 213 217 221 225 227 228 226 224 228 233 232 235 240 247 248 248 248 252 269 255 254
180 247 219 209 154 197 157 207 349 214 121 266 270 272 280 250 251 243 240 211 197 201 204 210 216 222 222 221 223 220 226 230 235 237 238 242 246 243 243 245 248 259 245 233
198 264 42 91 170 68 234 139 177 193 263 272 239 275 272 297 223 206 221 211 193 186 196 208 217 221 221 220 223 224 222 225 229 236 239 240 241 242 240 241 242 249 237 221
174 229 191 235 199 180 154 184 76 152 249 278 296 275 223 282 246 208 216 205 201 204 207 212 215 218 223 223 223 225 227 228 229 234 242 243 244 244 238 236 237 236 224 212
194 203 239 248 163 343 227 222 199 219 189 240 305 274 169 45 355 312 279 252 222 217 223 224 222 224 227 226 224 226 228 229 229 232 238 241 246 244 233 228 227 226 218 208
173 212 225 218 170 145 208 180 177 110 137 187 236 276 113 76 54 23 322 302 256 253 244 220 214 217 220 222 221 213 214 218 223 228 232 236 240 243 229 222 220 219 211 207
155 158 233 247 261 130 169 171 176 205 200 159 235 294 299 348 359 355 328 298 285 247 237 244 233 233 220 214 213 212 208 214 219 224 228 233 236 240 227 216 218 211 202 206
243 218 218 301 254 192 142 161 173 208 164 234 56 261 328 343 332 323 310 283 257 224 233 240 251 240 213 209 210 212 213 216 221 226 230 232 230 227 216 213 217 202 200 203
182 149 163 56 8 290 139 129 141 153 161 265 293 286 61 331 321 321 322 309 283 207 218 230 239 236 215 213 214 218 218 218 220 225 229 227 223 217 208 210 209 204 204 204
325 136 143 152 3 327 189 189 178 149 197 191 251 306 332 332 334 346 338 336 304 280 271 248 253 250 234 224 219 224 223 222 224 226 223 221 212 204 207 216 208 207 204 200
208 91 105 123 134 229 57 358 285 256 207 210 245 274 306 306 297 295 333 324 326 307 273 260 262 270 229 221 220 227 228 225 224 222 219 213 201 199 194 194 216 218 205 199
300 170 167 216 186 331 238 214 204 204 228 216 218 237 288 288 276 62 21 14 2 340 317 268 237 242 228 214 210 215 222 220 216 214 215 212 203 190 189 201 221 225 212 201
90 90 256 167 226 227 217 163 158 161 264 197 208 285 350 294 186 46 356 8 11 10 1 316 231 226 223 221 216 212 214 216 216 223 226 217 198 195 200 236 210 209 207 200
185 44 243 208 262 286 359 118 154 204 346 17 193 350 21 50 360 314 335 347 351 11 19 23 30 250 243 230 218 212 209 196 201 200 141 2 201 197 214 233 198 200 197 194
227 200 205 172 231 245 121 122 228 23 352 6 351 343 341 331 324 324 332 341 342 354 16 24 29 28 351 229 217 209 199 203 209 183 281 317 310 258 255 211 194 198 198 188
235 270 321 227 23 335 259 287 300 306 287 292 310 309 317 324 324 330 341 345 345 338 11 22 30 36 14 305 228 220 218 213 216 212 272 151 77 234 236 198 198 197 188 207
209 186 241 283 149 233 277 309 319 347 327 311 277 278 287 304 315 335 353 357 347 328 1 23 27 29 9 92 200 225 209 209 201 215 182 266 178 189 191 191 200 201 208 202
58 157 233 255 273 295 150 342 342 327 327 327 317 291 267 267 303 323 345 351 352 357 215 15 14 37 9 270 213 193 161 168 192 234 271 211 194 185 185 189 199 199 209 209
190 172 223 284 298 283 291 300 318 319 338 334 334 319 293 257 266 324 330 330 336 340 43 72 58 48 11 232 210 180 198 243 263 281 192 182 188 192 189 191 186 195 199 200
Height
1505 1505 1505 1501 1503 1504 1506 1506 1502 1493 1495 1495 1499 1499 1498 1502 1504 1505 1507 1510 1514 1516 1518 1522 1524 1527 1530 1533 1536 1539 1542 1545 1548 1550 1552 1553 1554 1556 1557 1558 1559 1558 1558 1557
1503 1501 1499 1501 1503 1503 1504 1504 1498 1493 1496 1497 1498 1496 1491 1494 1494 1496 1501 1506 1509 1513 1517 1518 1521 1524 1527 1529 1532 1536 1539 1542 1545 1548 1550 1552 1553 1555 1556 1556 1556 1556 1556 1555
1498 1494 1496 1498 1501 1502 1498 1502 1498 1502 1498 1498 1496 1489 1492 1490 1492 1496 1499 1502 1505 1507 1511 1514 1517 1520 1523 1525 1528 1531 1535 1538 1542 1545 1548 1549 1551 1553 1554 1555 1555 1555 1554 1552
1496 1494 1496 1498 1500 1498 1502 1497 1498 1500 1500 1507 1503 1506 1490 1488 1488 1489 1492 1495 1498 1502 1507 1511 1512 1515 1518 1520 1524 1528 1531 1535 1538 1541 1544 1546 1549 1551 1553 1554 1553 1553 1552 1551
1494 1493 1494 1496 1497 1496 1500 1499 1499 1499 1502 1504 1507 1509 1484 1489 1485 1482 1484 1487 1491 1495 1499 1504 1507 1509 1513 1517 1520 1524 1528 1531 1534 1538 1541 1543 1545 1548 1549 1550 1551 1551 1550 1549
1492 1493 1491 1489 1494 1494 1496 1497 1498 1500 1498 1508 1514 1510 1481 1482 1475 1471 1476 1480 1484 1487 1492 1496 1500 1504 1507 1511 1515 1518 1522 1525 1529 1534 1537 1540 1542 1545 1546 1547 1549 1549 1548 1548
1492 1489 1489 1491 1494 1496 1495 1495 1510 1512 1513 1515 1515 1515 1483 1471 1468 1468 1470 1473 1477 1481 1484 1488 1492 1497 1501 1505 1510 1513 1517 1521 1525 1529 1532 1535 1538 1541 1543 1545 1546 1546 1546 1546
1499 1499 1485 1482 1484 1488 1491 1490 1503 1525 1518 1507 1515 1500 1470 1466 1466 1467 1469 1470 1472 1475 1478 1482 1486 1491 1496 1501 1505 1509 1512 1516 1519 1523 1527 1531 1534 1537 1539 1541 1543 1543 1543 1544
1498 1496 1480 1480 1480 1481 1494 1497 1489 1499 1516 1513 1494 1480 1464 1464 1462 1463 1465 1465 1466 1469 1473 1477 1482 1486 1491 1495 1499 1503 1507 1511 1515 1519 1522 1525 1529 1532 1535 1537 1539 1539 1540 1541
1484 1495 1481 1479 1481 1484 1481 1485 1496 1499 1515 1515 1494 1494 1477 1461 1460 1461 1462 1462 1464 1466 1469 1473 1477 1481 1484 1489 1494 1499 1503 1507 1511 1514 1517 1520 1523 1526 1530 1533 1535 1536 1537 1539
1481 1484 1483 1480 1479 1479 1487 1487 1493 1491 1496 1499 1503 1483 1459 1462 1460 1458 1458 1460 1461 1463 1466 1468 1472 1475 1479 1484 1488 1492 1496 1500 1504 1508 1512 1515 1518 1521 1524 1528 1531 1533 1535 1537
1477 1478 1485 1479 1474 1478 1476 1477 1476 1486 1501 1499 1495 1479 1456 1461 1465 1465 1463 1462 1460 1461 1463 1465 1468 1471 1475 1478 1481 1484 1489 1493 1497 1503 1506 1511 1514 1516 1519 1523 1527 1531 1533 1534
1477 1481 1487 1480 1478 1478 1476 1477 1480 1480 1484 1495 1490 1475 1458 1463 1465 1466 1465 1464 1463 1464 1464 1463 1464 1465 1468 1471 1474 1478 1482 1488 1492 1497 1501 1505 1509 1511 1514 1519 1523 1528 1531 1535
1473 1478 1475 1479 1473 1470 1476 1475 1477 1472 1479 1486 1478 1468 1455 1457 1463 1467 1465 1462 1460 1459 1461 1463 1462 1461 1461 1465 1469 1474 1478 1483 1488 1492 1496 1499 1502 1505 1509 1515 1519 1521 1526 1532
1471 1476 1480 1477 1474 1471 1471 1472 1475 1475 1474 1475 1475 1475 1462 1467 1467 1463 1458 1459 1457 1457 1458 1459 1460 1460 1459 1462 1466 1470 1474 1478 1482 1486 1489 1492 1496 1501 1506 1512 1517 1521 1522 1526
1471 1477 1477 1478 1476 1473 1473 1474 1473 1477 1480 1478 1477 1472 1469 1470 1467 1462 1457 1452 1451 1454 1454 1455 1457 1458 1458 1460 1462 1465 1469 1472 1476 1479 1483 1488 1492 1497 1503 1509 1515 1522 1521 1522
1471 1471 1475 1482 1483 1479 1480 1472 1472 1475 1476 1473 1474 1465 1467 1465 1465 1462 1459 1454 1450 1447 1447 1449 1450 1451 1454 1457 1460 1461 1463 1467 1471 1475 1479 1483 1489 1494 1500 1508 1513 1517 1517 1519
1473 1476 1479 1481 1485 1499 1474 1473 1473 1472 1470 1470 1468 1466 1468 1467 1464 1462 1461 1456 1450 1445 1442 1443 1444 1445 1447 1452 1456 1459 1460 1463 1466 1469 1474 1479 1483 1489 1496 1501 1511 1516 1512 1514
1476 1474 1481 1481 1485 1484 1475 1471 1473 1473 1463 1462 1461 1462 1464 1464 1464 1462 1460 1455 1451 1446 1440 1438 1439 1441 1445 1447 1450 1452 1455 1458 1462 1466 1470 1473 1478 1483 1484 1482 1494 1507 1513 1515
1475 1477 1476 1484 1478 1485 1460 1463 1468 1470 1468 1456 1461 1463 1463 1464 1460 1461 1460 1456 1452 1447 1440 1436 1436 1437 1439 1443 1446 1448 1451 1455 1460 1462 1464 1467 1469 1475 1483 1483 1485 1497 1508 1514
1476 1477 1477 1481 1478 1466 1463 1467 1469 1476 1473 1466 1467 1467 1464 1464 1466 1464 1462 1459 1456 1451 1445 1440 1436 1437 1439 1442 1445 1448 1452 1457 1459 1464 1474 1462 1470 1484 1488 1488 1489 1496 1504 1509
1476 1476 1476 1484 1483 1481 1468 1471 1472 1473 1470 1470 1469 1468 1467 1466 1464 1462 1462 1458 1455 1452 1448 1445 1442 1440 1440 1441 1444 1447 1449 1452 1453 1457 1459 1448 1476 1474 1488 1488 1491 1497 1503 1507
1484 1477 1474 1478 1474 1472 1471 1470 1469 1469 1469 1470 1469 1467 1466 1466 1464 1462 1459 1455 1451 1452 1449 1446 1445 1444 1444 1443 1445 1447 1448 1448 1451 1455 1454 1453 1458 1472 1486 1489 1491 1496 1501 1506
1479 1480 1477 1477 1472 1471 1470 1469 1468 1466 1466 1466 1465 1463 1463 1464 1462 1459 1458 1454 1451 1449 1449 1447 1445 1443 1447 1447 1446 1448 1445 1449 1450 1454 1456 1459 1462 1467 1477 1480 1488 1494 1497 1502
1480 1482 1478 1474 1469 1467 1468 1468 1467 1465 1462 1461 1460 1459 1458 1459 1458 1458 1457 1454 1452 1449 1448 1447 1447 1442 1446 1451 1448 1449 1449 1451 1451 1453 1456 1457 1462 1466 1472 1481 1485 1491 1497 1501
1477 1473 1474 1468 1468 1468 1465 1465 1464 1462 1460 1458 1456 1454 1453 1453 1454 1454 1454 1453 1452 1451 1449 1448 1447 1443 1449 1450 1448 1450 1451 1451 1452 1450 1452 1456 1460 1467 1472 1478 1485 1492 1496 1500